This is the latest recevied weather packets stored in our database for station/object YF9UAG-16. If no packets are shown the sender has not sent any weather packets the latest 10 day(s).
| Time | Temp. | Humidity | Pressure | Rain* | Wind** | Luminosity | Snow |
|---|---|---|---|---|---|---|---|
| 1777256987 | 28.89° C | 66% | 1009 hPa | - | - | 0 W/m² | - |
| 1777256665 | 28.89° C | 67% | 1009 hPa | - | - | 0 W/m² | - |
| 1777256343 | 28.33° C | 67% | 1009 hPa | - | - | 0 W/m² | - |
| 1777256020 | 28.89° C | 68% | 1009 hPa | - | - | 0 W/m² | - |
| 1777255699 | 28.33° C | 69% | 1009 hPa | - | - | 0 W/m² | - |
| 1777255377 | 28.89° C | 72% | 1009 hPa | - | - | 0 W/m² | - |
| 1777255054 | 28.89° C | 70% | 1009 hPa | - | - | 0 W/m² | - |
| 1777254733 | 30° C | 70% | 1009 hPa | - | - | 0 W/m² | - |
| 1777254411 | 28.33° C | 70% | 1009 hPa | - | - | 0 W/m² | - |
| 1777254089 | 28.89° C | 71% | 1009 hPa | - | - | 0 W/m² | - |
| 1777253766 | 28.33° C | 69% | 1010 hPa | - | - | 0 W/m² | - |
| 1777253445 | 28.89° C | 71% | 1010 hPa | - | - | 0 W/m² | - |
| 1777253123 | 28.33° C | 69% | 1010 hPa | - | - | 0 W/m² | - |
| 1777252800 | 29.44° C | 71% | 1010 hPa | - | - | 0 W/m² | - |
| 1777252478 | 28.89° C | 71% | 1010 hPa | - | - | 0 W/m² | - |
| 1777252156 | 29.44° C | 70% | 1010 hPa | - | - | 0 W/m² | - |
| 1777251834 | 29.44° C | 71% | 1010 hPa | - | - | 0 W/m² | - |
| 1777251512 | 28.89° C | 67% | 1010 hPa | - | - | 0 W/m² | - |
| 1777251190 | 28.33° C | 71% | 1010 hPa | - | - | 0 W/m² | - |
| 1777250868 | 28.89° C | 74% | 1010 hPa | - | - | 0 W/m² | - |
| 1777250546 | 28.33° C | 74% | 1010 hPa | - | - | 0 W/m² | - |
| 1777250224 | 28.89° C | 73% | 1010 hPa | - | - | 0 W/m² | - |
| 1777249902 | 28.33° C | 74% | 1010 hPa | - | - | 0 W/m² | - |
| 1777249580 | 28.89° C | 74% | 1010 hPa | - | - | 0 W/m² | - |
| 1777249258 | 28.33° C | 76% | 1010 hPa | - | - | 0 W/m² | - |
* Rain since midnight (hover to see other rain measurements)
** Current wind speed in m/s (hover to see current wind gust speed)